Location: Barming
(51.2500°N, 0.4667°E)
Time: 03:42:22
(UTC+00:00)

Daily predictions for brighter satellites

Satellite Brightness Start Highest point End
(mag) Time Altitude Azimuth Time Altitude Azimuth Time Altitude Azimuth
CENTAUR R/B 3.8 03:29:55 36° ESE 03:29:55 36° ESE 03:35:39 10° NE
NOSS 3-2 (A) 4.4 03:44:15 43° E 03:44:15 43° E 03:49:09 10° NE
Cosmos 1943 Rocket 3.4 03:48:57 38° E 03:48:57 38° E 03:53:26 10° NE
CZ-2C R/B 4.4 03:47:26 10° ESE 03:52:01 28° ENE 03:54:19 21° NNE
Cosmos 2297 4.3 04:09:09 55° E 04:09:09 55° E 04:14:25 10° NE
Cosmos 2278 Rocket 3.8 04:19:53 23° N 04:19:53 23° N 04:22:12 10° NNE
USA 238 DEB 4.0 04:17:39 49° S 04:19:05 60° SE 04:25:51 10° NE
USA 238 4.0 04:17:43 49° S 04:19:12 60° SE 04:25:57 10° NE
Tsikada Rocket 4.3 04:15:11 10° S 04:21:19 66° E 04:27:34 10° NNE
USA 215 3.1 04:21:17 10° ESE 04:27:50 84° NNE 04:28:33 72° NW
Meteor 2-3 Rocket 3.8 04:32:53 38° S 04:35:11 77° E 04:40:57 10° NNE
SL-8 R/B 4.2 04:45:55 50° SSE 04:45:55 50° SSE 04:49:54 10° ESE
Meteor 1-26 Rocket 4.1 04:48:36 72° W 04:48:49 73° W 04:54:34 10° S
Cosmos 836 Rocket 4.4 04:52:06 68° NNW 04:52:47 87° ENE 04:58:01 10° SSE
Gblst 52 Del rocket 4.4 04:52:05 57° SW 04:53:23 77° SSE 05:00:11 10° ENE
Landsat 5 4.1 04:50:25 10° SSE 04:54:51 60° ENE 04:56:28 36° N
SKYMED 2 3.6 04:50:47 10° SSE 04:55:06 74° ENE 04:55:17 73° NE
Cosmos 2344 3.4 04:54:02 47° WSW 04:56:19 71° NW 05:04:31 10° NE
SL-19 R/B 4.1 04:51:16 10° SSE 04:56:50 74° WSW 04:58:04 54° NW
Cosmos 2297 Rocket 4.3 04:55:00 12° N 04:58:25 19° NNE 05:02:25 10° ENE
Cosmos 921 Rocket 4.1 05:03:16 33° S 05:03:16 33° S 05:05:50 10° S
Meteor 1-31 Rocket 3.8 04:59:41 10° NNE 05:03:28 47° E 05:07:14 10° S
Meteor 2-13 Rocket 4.4 04:58:31 10° S 05:04:38 88° E 05:10:46 10° N
Cosmos 2369 Rocket 2.4 05:00:53 10° SSW 05:06:26 70° ESE 05:12:02 10° NNE
Kosmos-917 3.8 05:07:19 82° ENE 05:07:19 82° ENE 05:12:23 10° NE
CZ-4C R/B 3.9 05:05:50 10° SSE 05:08:20 43° ESE 05:08:20 43° ESE
BREEZE-M DEB (TANK) 2.9 05:11:22 62° S 05:11:28 63° SSE 05:17:37 10° E
H-2A R/B 2.7 05:08:32 10° NNE 05:12:15 80° ESE 05:16:01 10° S
FALCON 9 DEB 4.5 05:14:31 31° ENE 05:14:31 31° ENE 05:16:11 10° ENE
H-2A R/B 3.7 05:09:34 10° SE 05:13:23 32° ENE 05:17:18 10° N
DNEPR-1 R/B 3.8 05:14:05 59° W 05:14:43 66° SW 05:20:11 10° SSE
Okean 3 Rocket 4.1 05:10:35 10° S 05:15:03 62° E 05:19:34 10° NNE
Cosmos 1151 Rocket 2.9 05:15:08 66° NW 05:15:37 74° W 05:19:58 10° S
YAOGAN 6 4.4 05:12:53 10° NNE 05:14:20 22° N 05:14:20 22° N
Cosmos 1486 Rocket 4.1 05:12:08 10° SSW 05:17:26 79° ESE 05:22:44 10° NNE
Cosmos 1862 3.5 05:14:13 10° S 05:18:08 68° E 05:22:05 10° NNE
CENTAUR R/B 2.6 05:17:08 39° WSW 05:19:37 65° NW 05:27:04 10° NE
SJ-12 3.8 05:18:09 10° NNE 05:22:18 82° WNW 05:26:27 10° SSW
Cosmos 2263 Rocket 4.5 05:21:18 10° N 05:22:33 11° NNE 05:23:50 10° NNE
Cosmos 1656 Rocket 3.8 05:18:46 10° SSW 05:24:07 70° ESE 05:29:34 10° NNE
Cosmos 773 Rocket 4.2 05:20:38 20° NNW 05:24:14 68° ENE 05:29:25 10° SSE
Cosmos 1766 Rocket 3.5 05:20:27 10° S 05:24:47 84° E 05:29:09 10° NNE
Cosmos 2142 Rocket 4.4 05:22:47 10° NNW 05:29:06 71° W 05:35:26 10° S
Cosmos 1328 Rocket 3.4 05:29:16 28° NNW 05:31:29 72° W 05:35:49 10° S
Cosmos 1943 Rocket 2.5 05:30:31 37° W 05:31:55 44° NW 05:37:20 10° NNE
CZ-2C R/B 2.7 05:26:40 10° S 05:32:02 56° W 05:35:48 19° NNW
NOSS 3-2 (A) 3.7 05:31:40 35° W 05:33:50 49° NNW 05:40:32 10° NE
Cosmos 2227 Rocket 4.1 05:29:44 10° NNW 05:34:09 23° NE 05:38:33 10° E
Envisat 2.9 05:31:55 10° N 05:36:59 68° WNW 05:42:01 10° SSW
CZ-4B R/B 4.3 05:33:47 10° NNE 05:37:06 35° E 05:40:24 10° SSE
Cosmos 2279 Rocket 3.9 05:31:34 10° NNW 05:37:41 64° W 05:43:46 10° S
SL-27 R/B 2.7 05:36:26 32° N 05:37:57 69° ENE 05:41:30 10° SSE
MOS 1-B Rocket 4.3 05:32:37 10° SSW 05:38:23 40° W 05:41:05 25° NW
Lacrosse 4 Rocket 3.9 05:37:54 10° N 05:40:25 15° NNE 05:42:56 10° ENE
Alouette 2 Rocket 4.4 05:37:42 10° N 05:41:36 41° ENE 05:44:59 10° SE
NOSS 3-2 (C) 3.5 05:38:28 26° WSW 05:41:54 62° NW 05:48:41 10° NE
COSMO-SKYMED 1 3.0 05:39:13 10° SSW 05:43:16 39° W 05:43:52 37° WNW
Cosmos 1607 4.5 05:41:24 18° NNW 05:46:00 54° NE 05:52:03 10° ESE
Cosmos 2098 Rocket 3.3 05:43:22 10° SSW 05:47:23 52° WNW 05:52:30 10° N
Cosmos 968 Rocket 3.8 05:45:01 25° WSW 05:47:31 42° WNW 05:52:24 10° NNE
ATLAS 3B R/B 4.5 05:42:46 10° S 05:48:26 32° ESE 05:54:21 10° NE
Meteor 2-15 Rocket 4.4 05:44:11 10° N 05:50:18 89° ENE 05:56:23 10° S
Nadezhda 4 Rocket 4.3 05:44:54 10° S 05:51:01 69° E 05:57:14 10° NNE
Meteor 1-27 Rocket 3.8 05:47:03 10° NNW 05:52:43 86° ENE 05:58:27 10° SSE
NOAA 11 4.3 05:47:29 10° NNE 05:53:00 81° ESE 05:58:30 10° SSW
Cosmos 2297 4.3 05:51:08 26° W 05:53:18 35° NW 05:58:30 10° NNE
Cosmos 158 Rocket 4.5 05:50:00 10° NNW 05:55:01 58° ENE 06:00:09 10° SE
BREEZE M DEB (TANK) 2.4 05:53:54 31° W 05:55:19 63° S 05:57:31 10° ESE
Cosmos 2228 Rocket 4.1 05:51:47 10° N 05:56:08 47° ENE 06:00:30 10° SSE
SMAP 4.5 05:54:07 10° NNE 05:58:33 41° E 06:02:57 10° S
Cosmos 1408 Rocket 3.4 05:54:52 10° S 05:59:10 90° ESE 06:03:31 10° N
Cosmos 2278 Rocket 3.9 06:01:44 14° NW 06:02:29 15° NNW 06:05:38 10° N
DMSP B5D1-3 4.5 06:00:34 10° S 06:05:41 67° WSW 06:10:52 10° NNW
Cosmos 1743 Rocket 4.1 06:03:02 10° S 06:07:21 62° E 06:11:41 10° NNE
Cosmos 1340 Rocket 3.4 06:05:13 10° S 06:09:07 60° E 06:13:05 10° NNE
ADEOS 3.5 06:04:09 10° NNE 06:09:23 71° WNW 06:14:34 10° SSW
USA 238 DEB 4.0 06:05:08 16° W 06:10:17 48° NNW 06:17:06 10° NE
USA 238 3.9 06:05:13 16° W 06:10:23 48° NNW 06:17:13 10° NE
Cosmos 1354 Rocket 3.9 06:05:29 10° SSW 06:10:46 78° WNW 06:16:08 10° NNE
USA 215 3.8 06:05:09 10° SSE 06:11:15 41° SW 06:15:53 17° WNW
FALCON 9 DEB 3.0 06:09:43 27° W 06:11:25 70° N 06:14:49 10° ENE
Cosmos 1515 Rocket 3.7 06:08:46 10° NNW 06:13:00 49° W 06:17:12 10° SSW
Cosmos 1939 Rocket 3.0 06:13:19 10° NNE 06:17:17 74° E 06:21:10 10° S
ATLAS 5 CENTAUR R/B 2.8 06:15:59 10° SSW 06:19:38 41° ESE 06:23:45 10° NE
CZ-2C R/B 2.8 06:16:30 10° NNE 06:21:20 76° WNW 06:26:21 10° SSW
SJ 16-02 1.6 06:17:40 10° SSW 06:22:02 73° ESE 06:26:25 10° NNE
FALCON 9 DEB 2.8 06:21:02 24° WNW 06:22:32 57° N 06:25:24 10° E
Meteor PRIRODA 3.6 06:21:24 10° N 06:24:58 57° WNW 06:28:31 10° SSW
CZ-4B R/B 1.3 06:23:25 10° SSE 06:26:44 85° ENE 06:30:02 10° NNW
Cosmos 1515 3.6 06:23:26 10° NNW 06:27:15 78° W 06:31:02 10° S
FALCON 9 DEB 2.8 06:26:07 21° WNW 06:27:46 58° N 06:30:35 10° E
FALCON 9 DEB 2.8 06:27:28 21° WNW 06:29:12 59° N 06:32:01 10° E
Meteor 2-19 Rocket 4.4 06:25:03 10° SSW 06:31:02 61° WNW 06:37:03 10° N
FAST Rocket 4.0 06:30:26 10° SSW 06:33:03 67° WNW 06:36:24 10° N
Cosmos 1500 Rocket 3.5 06:31:26 10° SSW 06:35:52 68° WNW 06:40:22 10° N
Cosmos 1538 Rocket 4.0 06:31:16 10° NNW 06:36:30 69° WSW 06:41:39 10° SSE
Meteor 1-31 Rocket 4.0 06:34:40 10° NNW 06:37:33 20° WNW 06:40:27 10° WSW
Okean 1 3.4 06:35:48 10° N 06:39:47 82° ENE 06:43:44 10° SSE
H-2A R/B 2.8 06:37:00 10° NNE 06:41:50 53° E 06:46:39 10° S
Cosmos 2297 Rocket 2.6 06:37:56 10° NNW 06:43:36 65° ENE 06:49:14 10° SE
Cosmos 1707 Rocket 3.9 06:40:25 10° N 06:44:51 70° ENE 06:49:17 10° SSE
H-2A R/B 4.5 06:44:15 10° NNW 06:45:50 12° WNW 06:47:26 10° W
Meteor 1-18 Rocket 4.5 06:40:24 10° N 06:46:19 79° ENE 06:52:05 10° SSE
Sich 1 3.2 06:42:33 10° S 06:46:50 77° E 06:51:07 10° NNE
Cosmos 1805 Rocket 3.5 06:43:17 10° SSW 06:47:40 84° W 06:52:05 10° N
FALCON 9 DEB 2.8 06:46:03 13° WNW 06:48:34 59° N 06:51:27 10° E
H-2A R/B 2.8 06:45:25 10° SSW 06:49:18 34° W 06:53:19 10° NNW
Cosmos 1666 4.2 06:47:24 10° SSE 06:50:58 40° E 06:54:32 10° NNE
Cosmos 2369 Rocket 3.0 06:46:09 10° WSW 06:50:58 29° NW 06:55:50 10° NNE
Okean O Rocket 3.4 06:47:01 10° NNE 06:51:09 37° E 06:55:14 10° SSE
COSMOS 2487 2.9 06:50:14 10° NW 06:53:24 38° WSW 06:56:32 10° S
USA 32 4.3 06:48:22 10° NNW 06:53:25 50° W 06:58:26 10° SSW
FengYun 1-2 T 4.2 06:49:13 10° N 06:54:40 65° WNW 07:00:05 10° SSW
CZ-2D R/B 3.2 06:50:59 10° NNE 06:54:49 90° S 06:58:36 10° SSW
Cosmos 2026 Rocket 4.0 06:51:01 10° SSW 06:57:23 82° W 07:03:41 10° N
Cosmos 1862 Rocket 4.2 06:53:18 10° N 06:57:35 56° ENE 07:01:50 10° SSE
Cosmos 1680 Rocket 3.9 06:52:55 10° NNW 06:58:15 69° ENE 07:03:31 10° SSE
Timation 1 Rocket 4.5 06:53:03 10° NNW 06:59:04 84° ENE 07:05:03 10° SSE
Cosmos 2195 Rocket 4.5 06:54:47 10° SSW 07:00:53 67° WNW 07:07:00 10° N
Cosmos 1553 Rocket 4.0 06:56:08 10° N 07:02:15 87° E 07:08:21 10° S
Cosmos 1777 Rocket 4.1 06:57:16 10° SW 07:02:22 55° WNW 07:07:34 10° NNE
CZ-4 R/B 3.9 07:01:53 10° NE 07:05:09 25° E 07:08:22 10° SSE
Meteor 2-14 Rocket 4.5 06:59:33 10° SSW 07:05:43 81° WNW 07:11:55 10° N
Meteor 2-4 Rocket 4.0 07:02:08 10° NNW 07:08:08 85° ENE 07:14:01 10° SSE
Cosmos 1656 Rocket 4.5 07:03:35 10° W 07:08:13 28° NW 07:12:54 10° NNE
NOAA 6 4.1 07:03:12 10° N 07:08:14 59° WNW 07:13:15 10° SSW
Cosmos 2263 Rocket 3.9 07:04:10 10° NNW 07:08:42 24° NE 07:13:14 10° E
CENTAUR R/B 3.6 07:05:34 10° WNW 07:11:41 35° N 07:18:51 10° NE
Cosmos 923 Rocket 4.1 07:06:34 10° NNW 07:11:56 76° WSW 07:17:15 10° SSE
Cosmos 2344 4.4 07:05:19 10° WNW 07:12:18 38° N 07:20:44 10° ENE
Meteor 1-19 Rocket 4.4 07:06:57 10° NNW 07:12:27 53° W 07:17:45 10° S
